New River MCAS, NC

3:20 PM EDT on May 23, 2017 (GMT -0400)
New River Marine Corps Air Station

Weather History for KNCA - April, 2014

Change the Weather History Date:

Sunday, April 6, 2014

  Actual Average Record
Temperature  
Mean Temperature 56 °F -  
Max Temperature 60 °F 69 °F 82 °F (2005)
Min Temperature 52 °F 48 °F 30 °F (2004)
Degree Days  
Heating Degree Days 9    
Growing Degree Days 6 (Base 50)    
Moisture  
Dew Point 39 °F    
Average Humidity 55    
Maximum Humidity 87    
Minimum Humidity 44    
Precipitation  
Precipitation 0.00 in - - ()
Sea Level Pressure  
Sea Level Pressure 30.12 in    
Wind  
Wind Speed 13 mph (NE)    
Max Wind Speed 18 mph    
Max Gust Speed 26 mph    
Visibility 10 miles    
Events      
Averages and records for this station are not official NWS values.
T = Trace of Precipitation, MM = Missing Value Source: NWS Daily Summary

Daily Weather History Graph

Daily Weather History Graph

Search for Another Location

Airport or City:

Trip Planner

Search our weather history database for the weather conditions in past years. The results will help you decide how hot, cold, wet, or windy it might be!

Date:

Astronomy

Apr. 06, 2014 Rise Set
Actual Time 6:49 AM EDT 7:34 PM EDT
Civil Twilight 6:24 AM EDT 8:00 PM EDT
Nautical Twilight 5:54 AM EDT 8:30 PM EDT
Astronomical Twilight 5:23 AM EDT 9:01 PM EDT
Moon 11:56 AM EDT (4/6) 1:21 AM EDT (4/6)
Length of Visible Light 13h 36m
Length of Day
12h 44m
Waxing Crescent, 43% of the Moon is Illuminated
Apr 6
Waxing Crescent
Apr 7
First Quarter
Apr 15
Full
Apr 22
Last Quarter
Apr 29
New

Hourly Weather History & Observations

Time (EDT) Temp. Dew Point Humidity Pressure Visibility Wind Dir Wind Speed Gust Speed Precip Events Conditions
12:56 AM 55.9 °F 52.0 °F 87% 30.07 in 10.0 mi NE 11.5 mph - N/A   Clear
1:56 AM 55.0 °F 50.0 °F 83% 30.07 in 10.0 mi NNE 8.1 mph - N/A   Clear
2:56 AM 54.0 °F 48.9 °F 83% 30.08 in 10.0 mi NNE 9.2 mph - N/A   Clear
3:56 AM 54.0 °F 42.1 °F 64% 30.09 in 10.0 mi NE 13.8 mph - N/A   Clear
4:56 AM 53.1 °F 37.9 °F 57% 30.09 in 10.0 mi NNE 11.5 mph - N/A   Clear
5:56 AM 53.1 °F 36.0 °F 52% 30.10 in 10.0 mi NE 16.1 mph - N/A   Clear
6:56 AM 52.0 °F 37.0 °F 57% 30.13 in 10.0 mi NNE 13.8 mph - N/A   Scattered Clouds
7:56 AM 52.0 °F 35.1 °F 53% 30.14 in 10.0 mi NNE 12.7 mph - N/A   Mostly Cloudy
8:56 AM 53.1 °F 34.0 °F 48% 30.14 in 10.0 mi NE 17.3 mph 26.5 mph N/A   Mostly Cloudy
9:56 AM 53.1 °F 33.1 °F 47% 30.15 in 10.0 mi NNE 17.3 mph - N/A   Overcast
10:56 AM 55.9 °F 34.0 °F 44% 30.16 in 10.0 mi NE 18.4 mph - N/A   Overcast
11:56 AM 57.9 °F 36.0 °F 44% 30.17 in 10.0 mi NE 15.0 mph - N/A   Overcast
12:56 PM 59.0 °F 37.9 °F 46% 30.17 in 10.0 mi NNE 15.0 mph - N/A   Overcast
1:56 PM 59.0 °F 39.0 °F 48% 30.15 in 10.0 mi NE 13.8 mph - N/A   Overcast
2:56 PM 60.1 °F 39.0 °F 46% 30.12 in 10.0 mi NE 15.0 mph - N/A   Overcast
3:56 PM 59.0 °F 37.9 °F 46% 30.13 in 10.0 mi NE 15.0 mph - N/A   Overcast
4:56 PM 57.9 °F 37.0 °F 46% 30.12 in 10.0 mi ENE 13.8 mph - N/A   Overcast
5:56 PM 57.9 °F 37.9 °F 47% 30.12 in 10.0 mi NNE 13.8 mph - N/A   Overcast
6:56 PM 57.0 °F 39.0 °F 51% 30.13 in 10.0 mi NE 11.5 mph - N/A   Overcast
7:56 PM 55.9 °F 37.0 °F 49% 30.12 in 10.0 mi NE 11.5 mph - N/A   Overcast
8:56 PM 55.9 °F 37.0 °F 49% 30.13 in 10.0 mi NE 10.4 mph - N/A   Overcast
9:56 PM 55.9 °F 37.9 °F 51% 30.12 in 10.0 mi NE 11.5 mph - N/A   Overcast
10:56 PM 55.0 °F 42.1 °F 62% 30.09 in 10.0 mi ENE 9.2 mph - N/A   Overcast
11:56 PM 55.0 °F 45.0 °F 69% 30.09 in 10.0 mi NE 9.2 mph - N/A   Overcast